Date,TemperatureHighF,TemperatureAvgF,TemperatureLowF,DewpointHighF,DewpointAvgF,DewpointLowF,HumidityHigh,HumidityAvg,HumidityLow,PressureMaxIn,PressureMinIn,WindSpeedMaxMPH,WindSpeedAvgMPH,GustSpeedMaxMPH,PrecipitationSumIn
2013-8-1,77.2,72.1,66.8,69.4,64.8,62.1,92,78,62,29.83,29.75,7,2,12,0.02
2013-8-2,77.2,66.3,59.3,65.2,61.4,58.2,97,85,60,29.88,29.81,4,0,7,0.43
2013-8-3,75.8,68.0,61.5,62.9,59.5,53.4,96,76,48,29.90,29.80,8,2,14,0.24
2013-8-4,71.2,65.3,59.9,60.7,56.2,51.7,89,73,54,30.03,29.90,9,2,16,0.00
2013-8-5,75.0,63.7,52.4,59.3,54.5,49.6,95,74,47,30.10,30.01,4,1,7,0.00
2013-8-6,79.8,66.7,54.3,62.7,57.0,51.9,93,73,41,30.05,29.97,4,0,8,0.00
2013-8-7,82.3,73.0,64.2,68.8,64.3,59.4,85,75,61,29.98,29.85,5,1,12,0.00
2013-8-8,81.2,73.5,67.0,72.6,68.4,63.9,95,84,69,29.94,29.87,7,0,12,0.13
2013-8-9,77.0,70.5,66.2,70.1,66.7,60.1,97,88,64,29.90,29.83,5,1,8,0.85
2013-8-10,71.6,65.1,55.4,61.2,56.6,49.7,95,75,48,30.08,29.90,7,1,12,0.00
2013-8-11,76.3,64.2,53.2,61.7,56.5,51.5,96,78,54,30.12,30.02,4,0,7,0.00
2013-8-12,79.0,68.1,59.0,65.1,60.5,56.4,92,78,53,30.04,29.84,3,0,7,0.00
2013-8-13,72.7,66.1,59.5,67.1,60.2,49.1,96,82,61,29.85,29.72,10,2,16,0.41
2013-8-14,69.2,60.5,54.4,54.9,51.6,48.8,91,74,51,30.07,29.82,8,3,17,0.00
2013-8-15,74.1,62.4,49.8,57.7,52.0,48.0,95,71,47,30.12,30.05,7,1,13,0.00
2013-8-16,79.2,64.5,52.4,61.1,55.4,50.6,94,75,48,30.19,30.10,4,0,7,0.00
2013-8-17,79.3,67.0,55.4,63.3,58.0,53.7,95,75,47,30.29,30.19,4,0,7,0.00
2013-8-18,81.5,68.2,58.0,65.1,59.8,55.4,94,77,45,30.24,30.09,4,0,7,0.00
2013-8-19,82.5,69.2,59.1,68.4,61.7,57.6,95,79,50,30.10,30.00,4,0,8,0.00
2013-8-20,85.3,71.8,60.0,67.3,61.4,57.3,92,72,43,30.11,30.03,6,1,12,0.00
2013-8-21,87.3,73.2,61.3,68.1,63.4,59.0,93,74,47,30.14,29.99,4,0,8,0.00
2013-8-22,83.3,73.7,65.3,72.0,66.1,58.1,90,78,61,30.01,29.86,9,1,14,0.02
2013-8-23,73.0,65.1,55.4,61.7,58.2,53.6,95,79,57,30.20,29.96,5,1,9,0.00
2013-8-24,75.7,63.2,52.8,58.1,53.3,48.1,96,74,42,30.35,30.20,5,0,8,0.01
2013-8-25,83.3,68.3,51.5,64.4,56.0,49.9,96,68,40,30.33,30.11,7,1,12,0.01
2013-8-26,77.7,70.1,64.9,70.6,66.1,61.1,96,88,72,30.12,29.90,6,1,12,1.31
2013-8-27,80.7,70.9,67.0,73.0,68.6,66.1,97,93,74,29.93,29.89,4,0,5,0.00
2013-8-28,82.3,76.6,68.8,73.5,70.7,67.5,97,83,71,29.93,29.84,4,1,7,0.03
2013-8-29,81.6,71.9,64.7,73.1,68.1,63.8,98,89,60,30.03,29.92,4,0,7,0.00
2013-8-30,86.0,73.6,63.3,72.9,66.8,62.1,97,81,52,29.99,29.74,4,0,8,0.01
2013-8-31,78.8,72.7,67.8,73.3,69.6,66.0,96,90,78,29.84,29.69,6,1,10,0.33